Regional Weather Roundup
Issued by NWS

Home | Current Version | Previous Version | Text Only | Print | Product List | Glossary On
Versions: 1 2 3 4 5 6 7 8 9 10 11 12 13 14 15 16 17 18 19 20 21 22 23 24 25 26 27 28 29 30 31 32 33 34 35 36 37 38 39 40 41 42 43 44 45 46 47 48 49 50
000
ASUS45 KREV 142110
RWRNV
NEVADA REGIONAL WEATHER ROUNDUP
NATIONAL WEATHER SERVICE RENO NV
100 PM PST SUN FEB 14 2016

NOTE: "FAIR" INDICATES FEW OR NO CLOUDS BELOW 12,000 FEET WITH NO
SIGNIFICANT WEATHER AND/OR OBSTRUCTIONS TO VISIBILITY.

NVZ001-003-004-142200-
WESTERN NEVADA

CITY           SKY/WX    TMP DP  RH WIND       PRES   REMARKS
RENO           PTSUNNY   61  35  37 S5        30.37F
CARSON CITY    FAIR      59  34  38 SE8       30.37F
MINDEN         FAIR      57  32  38 N6        30.39F
SLIDE MTN        N/A     34  30  86 NE14        N/A
PYRAMID LAKE     N/A     55 N/A N/A NE2         N/A
FALLON         PTSUNNY   60  34  37 W6        30.34F
LOVELOCK       MOSUNNY   60  36  40 VRB3      30.32F
HAWTHORNE      SUNNY     55  32  41 W5        30.37F
$$

NVZ002-CAZ072-073-142200-
NORTHERN AND CENTRAL SIERRA

CITY           SKY/WX    TMP DP  RH WIND       PRES   REMARKS
S. LAKE TAHOE  MOSUNNY   52  32  46 VRB3      30.39F
TRUCKEE        MOSUNNY   52  36  54 N13       30.40F
SQUAW VLY 8000   N/A     39  32  75 NE10        N/A
SUSANVILLE     CLOUDY    57  37  47 CALM      30.37F
BLUE CANYON    MOSUNNY   58  34  40 NE8G17    30.36F
MAMMOTH LAKES  FAIR      52  25  35 NW13      30.41F
BRIDGEPORT     FAIR      53  27  36 VRB5      30.38F
$$

NVZ030-031-036-142200-
NORTHERN NEVADA

CITY           SKY/WX    TMP DP  RH WIND       PRES   REMARKS
ELKO           CLOUDY    46  32  58 SW10      30.29F
WINNEMUCCA     MOSUNNY   59  40  49 W16       30.30F
WENDOVER       CLOUDY    41  32  70 E6        30.25S
$$

NVZ035-037-142200-
CENTRAL NEVADA

CITY           SKY/WX    TMP DP  RH WIND       PRES   REMARKS
ELY            MOSUNNY   47  28  47 N3        30.27F
EUREKA           N/A     47  27  45 CALM      30.30F
$$

NVZ013-014-142200-
SOUTH CENTRAL NEVADA

CITY           SKY/WX    TMP DP  RH WIND       PRES   REMARKS
TONOPAH        PTSUNNY   54  32  43 N21       30.31F
$$

NVZ017-020-022-142200-
SOUTHERN NEVADA

CITY           SKY/WX    TMP DP  RH WIND       PRES   REMARKS
LAS VEGAS      CLOUDY    69  16  13 S7        30.08F
N. LAS VEGAS   CLOUDY    73  15  11 N14       30.10F
NELLIS AFB     CLOUDY    70  19  14 CALM      30.11F
HENDERSON      CLOUDY    67  19  16 SW8       30.14
MERCURY        CLOUDY    66  21  18 N14       30.19F
$$



USA.gov is the U.S. government's official web portal to all federal, state and local government web resources and services.